Date,TemperatureHighF,TemperatureAvgF,TemperatureLowF,DewpointHighF,DewpointAvgF,DewpointLowF,HumidityHigh,HumidityAvg,HumidityLow,PressureMaxIn,PressureMinIn,WindSpeedMaxMPH,WindSpeedAvgMPH,GustSpeedMaxMPH,PrecipitationSumIn
2013-8-1,87,83,79,76,74,72,87,76,64,30.01,29.89,15,5,18,0.00
2013-8-2,89,81,76,76,74,70,89,79,62,30.01,29.87,16,2,16,0.05
2013-8-3,87,80,76,78,75,71,89,85,71,30.07,29.98,33,1,33,0.02
2013-8-4,93,83,76,78,74,73,90,77,55,30.06,29.94,5,1,13,0.00
2013-8-5,90,82,77,78,75,73,89,80,63,30.00,29.90,21,3,23,0.01
2013-8-6,90,81,77,78,75,72,90,82,65,29.95,29.83,15,1,15,0.00
2013-8-7,88,82,76,78,75,73,90,79,65,29.94,29.86,19,3,19,0.00
2013-8-8,89,84,79,77,75,73,88,76,60,29.97,29.88,22,5,22,0.04
2013-8-9,86,82,78,77,74,71,86,77,68,30.03,29.91,22,4,22,0.04
2013-8-10,89,84,79,78,76,73,85,77,59,30.07,29.99,20,5,20,0.00
2013-8-11,89,84,81,78,76,74,85,77,67,30.09,30.01,17,4,17,0.00
2013-8-12,87,83,77,77,75,72,89,78,62,30.07,29.97,20,4,20,0.00
2013-8-13,90,84,78,78,75,72,89,76,58,30.00,29.91,16,3,16,0.00
2013-8-14,90,84,77,77,75,73,90,76,59,29.98,29.88,18,3,18,0.00
2013-8-15,86,81,76,78,75,72,90,83,73,30.02,29.92,13,2,13,0.07
2013-8-16,90,84,79,79,77,75,89,80,64,30.01,29.93,17,3,17,0.00
2013-8-17,90,85,81,79,77,76,86,78,67,30.03,29.95,21,4,21,0.00
2013-8-18,88,84,81,79,77,75,84,78,69,30.03,29.94,23,5,23,0.00
2013-8-19,89,84,79,78,76,73,87,78,63,30.03,29.92,23,5,23,0.03
2013-8-20,89,84,80,78,76,72,85,76,60,30.01,29.94,20,5,20,0.00
2013-8-21,87,82,78,79,77,73,89,83,71,30.03,29.95,24,4,24,0.33
2013-8-22,89,83,73,79,76,70,90,81,69,30.05,29.91,31,4,31,0.67
2013-8-23,89,83,78,78,76,74,89,80,64,29.97,29.89,19,3,19,0.00
2013-8-24,89,83,76,78,75,71,90,79,63,30.07,29.92,15,2,16,0.27
2013-8-25,85,80,76,76,74,72,90,84,69,30.11,29.98,13,2,14,0.06
2013-8-26,87,80,74,77,74,71,90,82,66,30.08,29.97,16,2,17,0.04
2013-8-27,84,78,74,75,72,70,90,82,64,30.01,29.92,13,1,13,0.04
2013-8-28,87,79,72,76,73,68,90,83,66,30.00,29.90,18,2,18,0.43
2013-8-29,89,81,74,77,74,71,90,80,63,29.98,29.88,15,2,15,0.00
2013-8-30,91,83,76,76,74,70,90,75,54,29.97,29.85,15,2,15,0.00
2013-8-31,88,79,74,78,74,71,90,83,64,29.94,29.87,16,1,16,0.50